Regional Weather Roundup
Issued by NWS

Home | Current Version | Previous Version | Text Only | Print | Product List | Glossary Off
Versions: 1 2 3 4 5 6 7 8 9 10 11 12 13 14 15 16 17 18 19 20 21 22 23 24 25 26 27 28 29 30 31 32 33 34 35 36 37 38 39 40 41 42 43 44 45 46 47 48 49 50

000
ASUS43 KDTX 312110
RWRMI
MICHIGAN HOURLY REGIONAL WEATHER ROUNDUP
NATIONAL WEATHER SERVICE DETROIT/PONTIAC MI
500 PM EDT WED AUG 31 2016

NOTE: "FAIR" INDICATES FEW OR NO CLOUDS BELOW 12,000 FEET WITH NO
SIGNIFICANT WEATHER AND/OR OBSTRUCTION TO VISIBILITY.

MIZ047>049-052>055-059>063-066>070-074>076-081>083-312200-
SOUTHEAST LOWER MICHIGAN

CITY           SKY/WX    TMP DP  RH WIND       PRES   REMARKS
ADRIAN         CLOUDY    79  68  69 NE9       29.98S
ALMA           PTSUNNY   76  57  50 N9        30.03S
ANN ARBOR      MOSUNNY   76  61  59 NW14      29.98S
BAD AXE        SUNNY     70  53  53 N10G17    30.03S
CARO           MOSUNNY   71  59  64 N6        30.02S
DETROIT CITY   CLOUDY    76  61  59 N14       29.98R
DETROIT        PTSUNNY   77  63  61 N16       29.97S
FLINT          MOSUNNY   75  55  49 N12G21    30.01F
GROSSE ILE     CLOUDY    77  66  69 NE9       29.95S
HILLSDALE      PTSUNNY   75  65  71 N10       30.00R
HOWELL         SUNNY     74  58  55 N7G17     30.01S

CITY           SKY/WX    TMP DP  RH WIND       PRES   REMARKS
JACKSON        PTSUNNY   74  63  68 N9        30.00F
LAMBERTVILLE   CLOUDY    78  69  73 N6        29.97R
LANSING        MOSUNNY   77  56  48 N7        30.02S
LAPEER         FAIR      73  57  57 N7G17     30.01F
MASON          CLOUDY    74  60  60 NE12G17   30.01S
MONROE         CLOUDY    78  71  76 N6        29.95S
MT. CLEMENS    PTSUNNY   75  60  58 N17       29.97S
PONTIAC        PTSUNNY   75  56  51 N12       30.00S
PORT HOPE        N/A     71  57  61 N8G20     30.02S
PORT HURON     MOSUNNY   72  61  68 N14G20    29.99S
TRI CITIES     MOSUNNY   75  62  64 NE9       30.03S
MIDLAND        PTSUNNY   74  56  52 N8        30.02S
TROY           MOSUNNY   77  58  52 N9        30.00S
SAGINAW HB     MOSUNNY   73  57  56 N7        30.02S
$$
MIZ043>046-050>051-056>058-064>065-071>073-077>080-312200-
SOUTHWEST LOWER MICHIGAN

CITY           SKY/WX    TMP DP  RH WIND       PRES   REMARKS
BATTLE CREEK   CLOUDY    75  61  61 NE8       30.02S
BENTON HARBOR  MOSUNNY   74  60  61 N8        30.03F
BIG RAPIDS     PTSUNNY   75  49  40 N9G18     30.05S
COLDWATER      CLOUDY    75  66  72 NE7       30.00S
FREMONT        PTSUNNY   74  47  38 N13       30.04F
HOLLAND        SUNNY     78  56  46 N9        30.03S
GRAND RAPIDS   MOSUNNY   77  54  44 N13       30.02F
IONIA          FAIR      76  53  45 N8        30.01F
KALAMAZOO      CLOUDY    78  59  51 N12       30.01S
LUDINGTON      MOSUNNY   73  56  56 N16       30.07S
MARSHALL       PTSUNNY   76  59  56 N7        30.01S
MOUNT PLEASANT MOSUNNY   74  55  50 N8        30.03S
MUSKEGON       MOSUNNY   78  55  44 N10       30.04F
SOUTH HAVEN    MOSUNNY   75  63  65 N14G21    30.03S
$$
MIZ016>042-312200-
NORTHERN LOWER MICHIGAN

CITY           SKY/WX    TMP DP  RH WIND       PRES   REMARKS
ALPENA         CLOUDY    73  50  44 N15       30.04S
BEAVER ISLAND  CLOUDY    69  56  61 NW12G18   30.08F
BELLAIRE       CLOUDY    71  53  53 N8        30.08R
CADILLAC       MOSUNNY   72  49  43 N12G17    30.08S
CHARLEVOIX     CLOUDY    71  56  58 NW9G16    30.10F
FRANKFORT      CLOUDY    72  57  59 N9        30.09S
GAYLORD        CLOUDY    68  52  56 NW6       30.08S
GRAYLING       PTSUNNY   74  53  48 NW12G21   30.08R
HARBOR SPRINGS PTSUNNY   74  54  50 W8G16     30.06F
HOUGHTON LAKE  CLOUDY    71  50  47 N10       30.07R
MANISTEE       SUNNY     74  56  53 N10G18    30.07F
OSCODA         PTSUNNY   71  56  58 NE7       30.02S
PELLSTON       CLOUDY    72  52  49 NW17      30.07S
ROGERS CITY    SUNNY     73  53  49 NW10G20   30.05S
TRAVERSE CITY  PTSUNNY   72  54  53 N12       30.07R
$$
MIZ007>008-015-312200-
EASTERN UPPER MICHIGAN

CITY           SKY/WX    TMP DP  RH WIND       PRES   REMARKS
KINROSS        MOSUNNY   69  55  60 NW18      30.06S
MACKINAC ISLAN CLOUDY    69  55  60 N7        30.06S
NEWBERRY       MOSUNNY   67  54  61 NW13G21   30.10R
S. S. MARIE    CLOUDY    68  57  68 NW15      30.06R
MUNISING         N/A     67  58  72 NW15      30.13R
$$
MIZ004>006-011>014-085-312200-
CENTRAL UPPER MICHIGAN

CITY           SKY/WX    TMP DP  RH WIND       PRES   REMARKS
MANISTIQUE     CLOUDY    70  53  55 NW12G18   30.09S
MENOMINEE      CLOUDY   N/A N/A N/A N10       30.12R
SAWYER-GWINN   CLOUDY    64  57  77 N8        30.15S
$$
MIZ001>003-009>011-084-312200-
WESTERN UPPER MICHIGAN

CITY           SKY/WX    TMP DP  RH WIND       PRES   REMARKS
IRON MOUNTAIN  CLOUDY    71  51  49 N12       30.13S
HOUGHTON       CLOUDY    66  55  67 N12       30.16S
COPPER HARBOR    N/A     66  58  75 N14       30.15S
IRONWOOD       CLOUDY    67  55  65 VRB7      30.20S
$$

ABBREVIATIONS USED IN REMARKS
   TC - TEMPERATURE IN CELSIUS
  WCI - WIND CHILL INDEX
   HX - HEAT INDEX
  VSB - VISIBILITY





USA.gov is the U.S. government's official web portal to all federal, state and local government web resources and services.